SKY MEXICO-1

Last updated on Fri Apr 25 2025 00:02:40 GMT+0000 (Coordinated Universal Time)

1 40664U 15026B 25114.51534135 -.00000232 00000+0 00000+0 0 9990 2 40664 0.0359 38.7199 0002573 18.5691 262.2564 1.00272138 36339
UTC large
Height (km)
Speed (km/s)
/
Latitude / Longitude
Inclination (degrees)
Orbital Period (minutes)
Azimuth
Elevation
Range (km)
Doppler Factor

Next 0 passes for location: London (51.5072 / 0.1276)

Sorry there are no passes over London.